Location: Alta
(39.2070°N, 120.8111°W)
Time: 20:26:26
(UTC+00:00)

Hubble Space Telescope - Visible Passes

Search period start: 08 March 2026 00:00
Search period end: 18 March 2026 00:00
Orbit: 476 x 479 km, 28.5° (Epoch: 8 March)

Date Brightness Start Highest point End Pass type
(mag) Time Alt. Az. Time Alt. Az. Time Alt. Az.
10 Mar 3.0 03:36:24 10° S 03:37:13 11° S 03:37:13 11° S visible
11 Mar 2.9 03:05:46 10° S 03:07:08 12° SSE 03:08:27 10° SSE visible
12 Mar 2.9 02:35:08 10° S 02:36:29 12° SSE 02:37:50 10° SE visible
12 Mar 3.2 04:13:13 10° SW 04:13:43 12° SSW 04:13:43 12° SSW visible
13 Mar 2.6 03:42:34 10° SW 03:44:51 16° S 03:44:51 16° S visible
14 Mar 2.7 03:11:51 10° SW 03:14:13 16° S 03:15:57 12° SSE visible
15 Mar 2.7 02:41:09 10° SW 02:43:30 16° S 02:45:52 10° SE visible
16 Mar 3.0 03:50:28 10° SW 03:51:52 12° SSW 03:52:09 12° S visible
17 Mar 3.0 03:19:42 10° SW 03:21:07 12° SSW 03:22:31 10° S visible
